.: Résultats course des crêtes 2015 :.

Cliquez sur une course afin d'obtenir l'affichage du classement.
En bas du tableau vous pouvez télécharger les résultats au format excel.

  

    

 Classement course 7 kms femme
# Nom Prenom temps dossard Club Categorie
1 BRUN Bénédicte 00:30:51.72 4910 ATHLE 632 SEF
2 MUZOTTE Delphine 00:38:27.74 5016   SEF
3 VRADILOF Maud 00:40:01.28 5092   SEF
4 RIPOCHAUD Stecy 00:40:30.46 4918   JEF
5 CABALLERO Melodie 00:42:05.64 4960 POMPIERS BORDEAUX TRIATHLON SEF
6 PATTE Anne valérie 00:42:05.85 5101   SEF
7 VELEZ Flora 00:42:26.17 5056   JEF
8 DESSANS Catherine 00:42:49.77 5041   V1F
9 AUGER Annick 00:43:05.96 5224 ASSO MARATHON DES GRAVES V2F
10 HADJADJ Emilie 00:43:15.98 4956 LE TAILLAN BASKET JEF
11 BARON Manon 00:44:19.53 5046   SEF
12 CAZENAVE Emmanuelle 00:44:26.81 5181   V1F
13 PASSERON Annie 00:44:29.66 4909 AUNIS A. LA ROCHELLE AYTRE V3F
14 DUMEAUX Cécile 00:44:30.96 5066   SEF
15 LAMARQUE Elodie 00:45:04.56 5013   SEF
16 DESJOUIS Anaïs 00:45:06.41 5220   JEF
17 SAILLET Eva 00:45:13.71 5218   SEF
18 BATISSE Alice 00:45:47.96 5063   SEF
19 MARQUE Nathalie 00:45:59.18 5188   V1F
20 PASCAUD Karine 00:46:12.88 5159   V1F
21 VEZIEN Carole 00:46:13.58 5049 AIR CUBE BORDEAUX V2F
22 HADJADJ Sarah 00:46:15.53 4954 LE TAILLAN BASKET JEF
23 GALLAN Marion 00:46:28.82 5178   SEF
24 YEKAWENE Sophie 00:46:31.35 5020 GAZELEC V1F
25 NICOLAS Claire 00:46:40.40 4926 CSA TRAIL CAZAUX SEF
26 BOULIERE Helene 00:46:40.95 4983   V2F
27 SALISSARD Chantal 00:46:52.87 5009 SPORT POUR TOUS VILLENAVE D'ORNON V2F
28 CROS Coralie 00:46:56.26 5150   SEF
29 LAGARDE Claire 00:47:01.81 5194   SEF
30 AREGAY Carole 00:47:17.92 4965   SEF
31 SOUCHET Helene 00:47:19.44 5014   SEF
32 VILLAROYA Amandine 00:47:31.60 5061   SEF
33 SERRANO Delphine 00:47:32.02 5121 LYONNAISE DES EAUX-SGAC V1F
34 CLAUZURE Laura 00:47:35.19 5177   SEF
35 VIRILLI Anais 00:47:48.13 5127   SEF
36 BARBERIS Anne 00:48:18.36 5059   SEF
37 LE FUR Soizic 00:48:20.66 5118 LES ÉLECTRONS LIBRES SEF
38 CHATTON Tiphaine 00:48:29.84 5048   SEF
39 CAZILHAC Fanny 00:48:36.73 5259   SEF
40 PAUILHAC Stephanie 00:48:44.67 5087   V1F
41 BERNARD Delphine 00:48:46.66 5079   SEF
42 LARRODÉ Sandra 00:48:50.20 5221   SEF
43 ROSSIGNOL Alison 00:48:55.03 5001 LE TAILLAN BASKET JEF
44 PEDOT Clarence 00:48:58.86 5054   SEF
45 ROUSSEAU Alicia 00:49:04.03 5067 LES AMIS DES QUAIS DE PAUILLAC JEF
46 PAGES Stéphanie 00:49:05.12 5004   V1F
47 KERNEIS Myriam 00:49:05.90 5073   V1F
48 DOLHAGARAY Mathilde 00:49:20.11 5128   SEF
49 HARGUAIN Florence 00:49:22.36 5213   V1F
50 TAROZZI Carla 00:49:23.11 5099   JEF
51 LACAZE Helene 00:49:24.21 4955   SEF
52 FICHTELSCHERER Christelle 00:49:38.25 4908   SEF
53 ARNOULT Célia 00:49:45.99 4994   SEF
54 TAROZZI Corinne 00:49:47.46 5036   V1F
55 DAUMAND Daphne 00:49:50.32 5162   SEF
56 ASSENAT Julie 00:49:53.81 4992   SEF
57 NEVEU Aurelie 00:49:59.25 4946   SEF
58 LOIRAT Coralie 00:50:14.76 5230   SEF
59 NAVARRO Laurie 00:50:34.99 5094   SEF
60 COLERA Latifa 00:50:50.12 5018   V1F
61 COLNAT Coline 00:50:50.78 5116   SEF
62 COUSTEL Véronique 00:50:52.16 4924   V1F
63 CAULET Vanessa 00:50:57.68 5157 LE TAILLAN BASKET SEF
64 WAWRZYNIAK Magdalena 00:51:10.13 4901   SEF
65 NICOLAS Agnès 00:51:13.42 5096   V1F
66 LABARTHE Lauriane 00:51:13.61 5107   SEF
67 BELLOT Christelle 00:51:23.24 5082   V1F
68 BOYER Anne laure 00:51:36.21 5051   SEF
69 OGER Julie 00:51:41.20 4990   SEF
70 MERINO Mylène 00:51:46.02 5158   V1F
71 DUPONT Fabienne 00:52:00.93 5166   V1F
72 MARLOT Claire 00:52:01.71 5140   V1F
73 LE MAO Claire 00:52:02.35 5115 PAC CRAZY CREW JEF
74 BERTHOUMIEUX Léa 00:52:02.44 5075 PAC CRAZY CREW JEF
75 CHILI Mélinda 00:52:04.44 5156   SEF
76 VIRLOGEUX Sylvie 00:52:16.85 5223 ASSO MARATHON DES GRAVES V1F
77 OUEDRAOGO Karine 00:52:28.11 5078   V1F
78 BOUHYER Nadine 00:52:33.74 4931 DDX BRUGUIERES V1F
79 LE MAIRE Isabelle 00:52:34.98 5045   V2F
80 BRUNOD Alicia 00:52:42.90 4985   SEF
81 FERRÉ Cécile 00:52:43.12 4932   SEF
82 GOURG Laure 00:52:45.69 4966   SEF
83 CARREAU Raphaele 00:52:46.71 4978 AIRCUB SEF
84 SABALOT-JUNGALAS Fanny 00:52:48.84 4989   SEF
85 PFISTER Carole 00:52:58.83 5197 BAZAS V1F
86 DESCACQ Magali 00:52:59.22 5226 ATHLÉTISME BAZAS SEF
87 LAUTARD Cecile 00:53:00.46 5027   SEF
88 BARES-COUTURES Solange 00:53:04.86 5064   V3F
89 TAMET Laurie 00:53:13.65 4907   SEF
90 GÂTÉ Lucie 00:53:17.82 5108   SEF
91 MOREAU Sandy 00:53:19.00 5010   SEF
92 RICHARD Caroline 00:53:26.67 4928 BERUGES SPORT NATURE (BSN) V1F
93 FILLON Patricia 00:53:26.80 4927 BÉRUGES SPORT NATURE V1F
94 DELGRANGE Emeline 00:53:32.42 5168   SEF
95 ARROSSAGARAY Maider 00:53:40.15 5182   SEF
96 ROCHEDREUX Salomé 00:53:45.71 5023   SEF
97 MAILHARRO Aline 00:53:48.43 5026   V1F
98 TOURBET Nathalie 00:53:49.58 4970   V1F
99 LAFITTE Eliane 00:53:53.18 5025   V1F
100 LE MENACH Christelle 00:54:01.54 4964   V1F
101 BOULOGNE Celine 00:54:01.67 4947   V1F
102 MARTY Hélène 00:54:04.61 5191   V1F
103 HERZI Sofia 00:54:14.39 5071   V2F
104 WINDISCH Tonia 00:54:19.11 5154 ASEAT CREDIT MUTUEL V2F
105 BOIS Audrey 00:54:22.86 5003   SEF
106 BARTHE Celine 00:54:28.57 4906   V1F
107 NICOLAS Virginie 00:54:31.60 5113   SEF
108 ROUSSEAU Patricia 00:54:31.95 5235 BÉRUGES SPORT NATURE V1F
109 MIGNOT Colette 00:54:37.15 4968 ALTEA V3F
110 LATESTERE Muriel 00:54:38.50 4915   V1F
111 LAMBERT Carole 00:54:40.15 4987   SEF
112 TKOUB Amel 00:54:40.30 4973   SEF
113 HERROU Virginie 00:54:48.01 5037 LES PAPILLONS DE CHARCOT V1F
114 GUILHEMSAN Florence 00:54:52.66 4949   SEF
115 MEDAN Barbara 00:55:03.04 5033   V1F
116 MARTY Estelle 00:55:03.93 4996   V1F
117 POUTIER Estelle 00:55:07.79 5028 LES ZINZINS DES COTEAUX 31 V1F
118 WATTIER Manon 00:55:32.18 5065   SEF
119 MARMIN Anne-marie 00:55:36.58 5133   V2F
120 SABAROT Irene 00:55:41.86 5212   V1F
121 TONIUTTI Annie 00:55:43.15 5077   V1F
122 PEDROSA Sophie 00:55:47.69 5208   SEF
123 DE PANNEMAECKER Gaëlle 00:55:50.57 5084   SEF
124 SKOWRONEK Virginie 00:55:52.88 5076   SEF
125 AGUETTAZ Colette 00:55:55.79 4997 COEUR ET SPORT 47 V3F
126 GREGOIRE Aurelie 00:55:57.01 5052   SEF
127 ASSENAT Béatrice 00:55:57.63 4993   V2F
128 BONNIN Sylvie 00:55:59.67 4912 1000 PATTES SURGERES V1F
129 VEUILLET Helene 00:56:08.30 5100   SEF
130 CASSAN Sandrine 00:56:09.53 5058   V1F
131 DERVEAUX Laurence 00:56:12.20 4925   V1F
132 GRONDIN Rachel 00:56:14.87 5245   SEF
133 DUFRECHE Adeline 00:56:34.87 5216   SEF
134 MEZZASALMA Catherine 00:56:38.87 5011   V1F
135 BERNEDE Marie-laure 00:56:39.50 5005   V1F
136 BULLOZ Isabelle 00:56:41.92 4952   SEF
137 SANDOZ Mylene 00:56:45.90 4916   SEF
138 PRADELS Fanny 00:56:53.34 5134   SEF
139 ROUX Noëlle 00:56:56.10 5146   V1F
140 TYSSANDIER Helene 00:57:02.75 5185   SEF
141 DICKSON Aimée 00:57:08.84 5131 TEAM CAMPING LABARTHE SEF
142 KIRCH Cyrille 00:57:22.58 4933 BSN V1F
143 ROSSIGNOL Alexandrine 00:58:09.88 5002   V1F
144 COMYN Géraldine 00:59:02.78 5167   SEF
145 LARRIEU Stéphanie 00:59:02.83 5120 LYONNAISE DES EAUX-SGAC V1F
146 QUINTARD Monya 00:59:05.02 4921   V1F
147 GIRARD Vanessa 00:59:05.92 4961   SEF
148 BERTON Josiane 00:59:17.81 4940 LA FOULÉE BEAUZELLOISE V2F
149 UHART Amandine 00:59:22.90 5142   SEF
150 MUET Marine 00:59:23.95 5024   SEF
151 PEIXOTO Celine 00:59:24.87 5199   SEF
152 BERGER Marie-hélène 00:59:28.01 5225   V2F
153 VIAUD Sandrine 00:59:36.19 5132   SEF
154 JOUANNEAUD Christine 00:59:46.37 4995   V2F
155 BRUNET Florence 00:59:47.19 4935 BERUGES SPORT NATURE V1F
156 BREDEAUX Bérangère 00:59:53.41 5069   SEF
157 BAZAS Sandra 00:59:55.90 5097   SEF
158 BENARD Anais 01:00:16.58 4938   SEF
159 GUIMBERTEAU Marie 01:00:24.82 5237   JEF
160 DUCHEMIN Julie 01:00:47.70 5210   SEF
161 BOISSONNEAU Eloise 01:00:47.93 5240   SEF
162 VIERS Frederique 01:01:15.89 5179   V1F
163 FRADON Stephanie 01:02:27.83 5222 AKRO BITUM SEF
164 DION Tatiana 01:03:27.18 4975   V1F
165 LE NEST Gaëlle 01:04:27.29 5192   V1F
166 BUSCHAUD Nicole 01:05:20.66 4929   V3F
167 LEREVENU Beatrice 01:05:21.61 4971   V1F
168 DROUMAGUET Virginie 01:05:59.43 4945   JEF
169 AGUERRE Amandine 01:07:10.09 5088   SEF
170 SIMONIN Prescillia 01:07:36.35 5244   SEF
171 BONNET Valerie 01:08:21.13 5236   V1F
172 GRONDIN Muriel 01:08:35.30 5243   V2F
173 DEGERS Françoise 01:10:03.86 4905 OXYGENE V2F
174 CHARENTON Veronique 01:10:09.64 5151   V1F
175 PAGES MARTINEZ GONZALEZ Paola 01:13:52.42 5095   SEF
176 REGNIER Aurelie 01:27:19.18 5031   SEF
177 BEDIN Marie 01:27:19.91 5172   SEF
178 LODETTI Sabrina 01:27:20.39 5117   SEH
179 PEUCHAUD Nathalie 01:33:53.32 5042   V1F
 Record (1..179)  

.: Powered by Guyzoline :.